Flag for United Kingdom Past Weather in Lerwick (Shetland Islands), Scotland, United Kingdom — Yesterday and Last 2 Weeks

Now
40 °F

Overcast.


Feels Like: 31 °F
Forecast: 36 / 44 °F
Wind: 15 mph from Northwest

Location: Lerwick

Current Time: Apr 27, 2017 at 6:32:30 am

Latest Report: Apr 27, 2017 at 5:00 am


Visibility: 22 mi

Pressure: 29.80 "Hg

Humidity: 85%

Dew Point: 36 °F

Location of Lerwick (Shetland Islands)Location

Past Weather in Lerwick (Shetland Islands) — Graph

°F

Lerwick (Shetland Islands) Temperature Yesterday

Maximum temperature yesterday: 44 °F (at 11:00 pm)
Minimum temperature yesterday: 34 °F (at 4:00 am)
Average temperature yesterday: 40 °F

High & Low Weather Summary for the Past Weeks

 TemperatureHumidityPressure
High49 °F (Apr 20, 12:00 pm)100% (Apr 20, 5:00 am)30.38 "Hg (Apr 20, 5:00 am)
Low32 °F (Apr 24, 5:00 am)52% (Apr 21, 5:00 pm)29.73 "Hg (Apr 23, 8:00 pm)
Average40 °F79%30.06 "Hg
* Reported Apr 19 8:00 am — Apr 27 4:00 am, Lerwick (Shetland Islands), Weather by CustomWeather, © 2017

Note: Actual official high and low records may vary slightly from our data, if they occured in-between our weather recording intervals... More about our weather records

Advertising

Lerwick (Shetland Islands) Weather History for the Previous 24 Hours

Scroll right to see more
 ConditionsComfort  
Time TempWeatherWind HumidityBarometerVisibility
4:00 am
Thu, Apr 27
40 °FLight rain. Overcast.23 mph93%29.80 "Hg4 mi
3:00 am42 °FOvercast.21 mph90%29.79 "Hg12 mi
2:00 am43 °FRain. Low clouds.24 mph95%29.80 "Hg3 mi
1:00 am44 °FLight rain. Low clouds.22 mph91%29.80 "Hg5 mi
12:00 am44 °FLight rain. Low clouds.17 mph94%29.82 "Hg6 mi
11:00 pm
Wed, Apr 26
44 °FLight rain. Low clouds.21 mph93%29.83 "Hg4 mi
10:00 pm44 °FRain. Low clouds.20 mph93%29.85 "Hg5 mi
9:00 pm44 °FDrizzle. Overcast.21 mph93%29.86 "Hg7 mi
8:00 pm43 °FLight rain. Overcast.22 mph92%29.88 "Hg7 mi
7:00 pm42 °FLight rain. Overcast.22 mph90%29.90 "Hg7 mi
6:00 pm42 °FLight rain. Overcast.23 mph82%29.93 "Hg5 mi
5:00 pm41 °FLight rain. Overcast.20 mph88%29.96 "Hg7 mi
4:00 pm42 °FLight rain. Overcast.18 mph73%29.99 "Hg11 mi
3:00 pm41 °FOvercast.17 mph68%30.01 "Hg31 mi
2:00 pm40 °FOvercast.15 mph69%30.03 "Hg31 mi
1:00 pm42 °FOvercast.12 mph61%30.04 "Hg31 mi
12:00 pm42 °FOvercast.10 mph58%30.04 "Hg25 mi
11:00 am40 °FOvercast.13 mph72%30.05 "Hg25 mi
10:00 am40 °FOvercast.12 mph59%30.06 "Hg28 mi
9:00 am40 °FOvercast.14 mph55%30.06 "Hg28 mi
8:00 am38 °FOvercast.10 mph61%30.06 "Hg25 mi
7:00 am36 °FOvercast.9 mph73%30.06 "Hg28 mi
6:00 am36 °FOvercast.12 mph79%30.06 "Hg9 mi
Weather by CustomWeather, © 2017

See weather overviewHow to use our weather pages